Time,TemperatureF,DewpointF,PressureIn,WindDirection,WindDirectionDegrees,WindSpeedMPH,WindSpeedGustMPH,Humidity,HourlyPrecipIn,Conditions,Clouds,dailyrainin,SoftwareType,DateUTC
2013-10-04 00:01:00,70.6,38.4,29.88,ENE,68,0.4,4.0,31,0.00,,,0.00,WUHU216HW,2013-10-04 07:01:00,
2013-10-04 00:06:00,70.6,39.3,29.89,NNW,338,0.0,4.0,32,0.00,,,0.00,WUHU216HW,2013-10-04 07:06:00,
2013-10-04 00:11:00,70.6,39.3,29.89,North,0,1.8,2.7,32,0.00,,,0.00,WUHU216HW,2013-10-04 07:11:00,
2013-10-04 00:16:00,70.6,40.0,29.89,WNW,293,0.2,2.9,33,0.00,,,0.00,WUHU216HW,2013-10-04 07:16:00,
2013-10-04 00:21:00,70.6,40.0,29.89,ESE,113,2.2,3.4,33,0.00,,,0.00,WUHU216HW,2013-10-04 07:21:00,
2013-10-04 00:26:00,70.2,38.9,29.90,ENE,68,2.2,3.6,32,0.00,,,0.00,WUHU216HW,2013-10-04 07:26:00,
2013-10-04 00:31:00,69.8,38.5,29.90,East,90,1.8,3.6,32,0.00,,,0.00,WUHU216HW,2013-10-04 07:31:00,
2013-10-04 00:36:00,69.7,38.4,29.90,NE,45,2.5,3.8,32,0.00,,,0.00,WUHU216HW,2013-10-04 07:36:00,
2013-10-04 00:41:00,69.5,38.3,29.90,NE,45,1.6,3.8,32,0.00,,,0.00,WUHU216HW,2013-10-04 07:41:00,
2013-10-04 00:46:00,69.1,38.6,29.90,ESE,113,1.6,3.4,33,0.00,,,0.00,WUHU216HW,2013-10-04 07:46:00,
2013-10-04 00:51:00,68.9,38.5,29.90,ENE,68,2.9,2.9,33,0.00,,,0.00,WUHU216HW,2013-10-04 07:51:00,
2013-10-04 00:56:00,68.8,39.1,29.90,ENE,68,1.8,3.4,34,0.00,,,0.00,WUHU216HW,2013-10-04 07:56:00,
2013-10-04 01:01:00,68.8,39.1,29.90,East,90,2.2,3.4,34,0.00,,,0.00,WUHU216HW,2013-10-04 08:01:00,
2013-10-04 01:06:00,68.8,39.1,29.90,ENE,68,2.0,3.4,34,0.00,,,0.00,WUHU216HW,2013-10-04 08:06:00,
2013-10-04 01:11:00,68.8,39.1,29.90,East,90,2.5,3.6,34,0.00,,,0.00,WUHU216HW,2013-10-04 08:11:00,
2013-10-04 01:16:00,68.8,39.1,29.90,East,90,2.5,3.6,34,0.00,,,0.00,WUHU216HW,2013-10-04 08:16:00,
2013-10-04 01:21:00,68.6,38.9,29.91,ENE,68,2.7,3.4,34,0.00,,,0.00,WUHU216HW,2013-10-04 08:21:00,
2013-10-04 01:26:00,68.4,38.7,29.90,East,90,1.8,3.4,34,0.00,,,0.00,WUHU216HW,2013-10-04 08:26:00,
2013-10-04 01:31:00,68.0,38.4,29.90,SSW,203,2.2,3.4,34,0.00,,,0.00,WUHU216HW,2013-10-04 08:31:00,
2013-10-04 01:36:00,68.0,37.7,29.90,East,90,1.8,3.4,33,0.00,,,0.00,WUHU216HW,2013-10-04 08:36:00,
2013-10-04 01:41:00,68.2,37.8,29.90,ENE,68,3.1,3.6,33,0.00,,,0.00,WUHU216HW,2013-10-04 08:41:00,
2013-10-04 01:46:00,68.0,37.7,29.90,East,90,2.2,3.6,33,0.00,,,0.00,WUHU216HW,2013-10-04 08:46:00,
2013-10-04 01:51:00,68.0,37.7,29.90,East,90,2.9,3.4,33,0.00,,,0.00,WUHU216HW,2013-10-04 08:51:00,
2013-10-04 01:55:00,67.9,37.5,29.90,ESE,113,1.8,3.6,33,0.00,,,0.00,WUHU216HW,2013-10-04 08:55:00,
2013-10-04 02:00:00,67.7,37.4,29.90,ESE,113,2.5,3.8,33,0.00,,,0.00,WUHU216HW,2013-10-04 09:00:00,
2013-10-04 02:05:00,67.3,37.1,29.90,East,90,3.8,3.8,33,0.00,,,0.00,WUHU216HW,2013-10-04 09:05:00,
2013-10-04 02:10:00,67.1,36.9,29.90,East,90,5.4,5.4,33,0.00,,,0.00,WUHU216HW,2013-10-04 09:10:00,
2013-10-04 02:15:00,67.0,36.1,29.90,East,90,1.8,5.4,32,0.00,,,0.00,WUHU216HW,2013-10-04 09:15:00,
2013-10-04 02:20:00,66.8,35.9,29.90,East,90,2.7,4.7,32,0.00,,,0.00,WUHU216HW,2013-10-04 09:20:00,
2013-10-04 02:25:00,66.6,35.7,29.90,ENE,68,2.9,3.8,32,0.00,,,0.00,WUHU216HW,2013-10-04 09:25:00,
2013-10-04 02:30:00,66.4,35.7,29.90,ESE,113,1.8,4.0,32,0.00,,,0.00,WUHU216HW,2013-10-04 09:30:00,
2013-10-04 02:35:00,66.2,36.2,29.89,East,90,2.0,4.0,33,0.00,,,0.00,WUHU216HW,2013-10-04 09:35:00,
2013-10-04 02:40:00,66.1,36.0,29.90,ENE,68,1.8,3.1,33,0.00,,,0.00,WUHU216HW,2013-10-04 09:40:00,
2013-10-04 02:45:00,65.9,35.8,29.90,ESE,113,2.5,2.5,33,0.00,,,0.00,WUHU216HW,2013-10-04 09:45:00,
2013-10-04 02:50:00,65.9,35.8,29.90,ENE,68,1.3,2.5,33,0.00,,,0.00,WUHU216HW,2013-10-04 09:50:00,
2013-10-04 02:55:00,65.7,35.7,29.90,ENE,68,1.3,3.1,33,0.00,,,0.00,WUHU216HW,2013-10-04 09:55:00,
2013-10-04 03:00:00,65.7,35.0,29.90,ENE,68,0.2,3.1,32,0.00,,,0.00,WUHU216HW,2013-10-04 10:00:00,
2013-10-04 03:05:00,65.9,35.8,29.90,West,270,0.0,1.3,33,0.00,,,0.00,WUHU216HW,2013-10-04 10:05:00,
2013-10-04 03:10:00,65.9,35.8,29.90,North,0,2.5,2.5,33,0.00,,,0.00,WUHU216HW,2013-10-04 10:10:00,
2013-10-04 03:16:00,66.2,36.2,29.90,North,0,2.2,2.5,33,0.00,,,0.00,WUHU216HW,2013-10-04 10:16:00,
2013-10-04 03:20:00,66.6,36.5,29.90,North,0,1.1,2.5,33,0.00,,,0.00,WUHU216HW,2013-10-04 10:20:00,
2013-10-04 03:25:00,66.8,36.6,29.90,NNW,338,1.3,2.5,33,0.00,,,0.00,WUHU216HW,2013-10-04 10:25:00,
2013-10-04 03:30:00,66.8,35.9,29.90,NNW,338,1.1,1.6,32,0.00,,,0.00,WUHU216HW,2013-10-04 10:30:00,
2013-10-04 03:35:00,67.1,36.2,29.90,NNW,338,1.8,2.5,32,0.00,,,0.00,WUHU216HW,2013-10-04 10:35:00,
2013-10-04 03:40:00,67.7,36.6,29.90,North,0,1.1,4.0,32,0.00,,,0.00,WUHU216HW,2013-10-04 10:40:00,
2013-10-04 03:45:00,67.7,35.9,29.90,North,0,1.1,4.0,31,0.00,,,0.00,WUHU216HW,2013-10-04 10:45:00,
2013-10-04 03:50:00,67.9,36.1,29.90,North,0,0.7,2.0,31,0.00,,,0.00,WUHU216HW,2013-10-04 10:50:00,
2013-10-04 03:55:00,67.7,35.2,29.90,North,0,1.8,2.5,30,0.00,,,0.00,WUHU216HW,2013-10-04 10:55:00,
2013-10-04 04:00:00,67.5,35.0,29.90,NNE,23,1.3,2.5,30,0.00,,,0.00,WUHU216HW,2013-10-04 11:00:00,
2013-10-04 04:06:00,67.3,34.9,29.90,NNW,338,2.7,2.7,30,0.00,,,0.00,WUHU216HW,2013-10-04 11:06:00,
2013-10-04 04:11:00,67.5,35.0,29.90,NNW,338,1.8,3.1,30,0.00,,,0.00,WUHU216HW,2013-10-04 11:11:00,
2013-10-04 04:16:00,67.5,35.0,29.90,NNW,338,2.7,3.6,30,0.00,,,0.00,WUHU216HW,2013-10-04 11:16:00,
2013-10-04 04:21:00,67.7,35.2,29.90,North,0,1.3,3.6,30,0.00,,,0.00,WUHU216HW,2013-10-04 11:21:00,
2013-10-04 04:26:00,67.9,35.3,29.90,NNW,338,1.3,2.9,30,0.00,,,0.00,WUHU216HW,2013-10-04 11:26:00,
2013-10-04 04:31:00,67.9,35.3,29.90,WNW,293,1.1,2.9,30,0.00,,,0.00,WUHU216HW,2013-10-04 11:31:00,
2013-10-04 04:36:00,67.9,35.3,29.90,NNE,23,1.3,1.8,30,0.00,,,0.00,WUHU216HW,2013-10-04 11:36:00,
2013-10-04 04:41:00,67.5,35.0,29.90,NNE,23,1.6,2.2,30,0.00,,,0.00,WUHU216HW,2013-10-04 11:41:00,
2013-10-04 04:46:00,67.3,33.9,29.90,North,0,0.4,2.2,29,0.00,,,0.00,WUHU216HW,2013-10-04 11:46:00,
2013-10-04 04:51:00,67.3,33.9,29.90,NNE,23,0.0,2.0,29,0.00,,,0.00,WUHU216HW,2013-10-04 11:51:00,
2013-10-04 04:56:00,67.0,34.6,29.90,NNE,23,0.0,1.1,30,0.00,,,0.00,WUHU216HW,2013-10-04 11:56:00,
2013-10-04 05:01:00,67.0,34.6,29.90,North,0,0.4,1.1,30,0.00,,,0.00,WUHU216HW,2013-10-04 12:01:00,
2013-10-04 05:06:00,67.0,34.6,29.91,NNW,338,1.1,1.8,30,0.00,,,0.00,WUHU216HW,2013-10-04 12:06:00,
2013-10-04 05:11:00,67.1,34.7,29.90,NNW,338,1.1,2.0,30,0.00,,,0.00,WUHU216HW,2013-10-04 12:11:00,
2013-10-04 05:16:00,67.3,33.9,29.90,North,0,0.7,2.0,29,0.00,,,0.00,WUHU216HW,2013-10-04 12:16:00,
2013-10-04 05:21:00,67.3,33.9,29.91,ESE,113,2.0,2.0,29,0.00,,,0.00,WUHU216HW,2013-10-04 12:21:00,
2013-10-04 05:26:00,66.8,34.5,29.91,East,90,1.3,2.7,30,0.00,,,0.00,WUHU216HW,2013-10-04 12:26:00,
2013-10-04 05:31:00,66.2,34.0,29.91,NE,45,2.5,2.7,30,0.00,,,0.00,WUHU216HW,2013-10-04 12:31:00,
2013-10-04 05:36:00,65.9,34.4,29.91,ENE,68,1.6,2.5,31,0.00,,,0.00,WUHU216HW,2013-10-04 12:36:00,
2013-10-04 05:41:00,65.7,33.6,29.91,ESE,113,0.9,2.5,30,0.00,,,0.00,WUHU216HW,2013-10-04 12:41:00,
2013-10-04 05:46:00,65.3,33.9,29.91,East,90,1.6,2.5,31,0.00,,,0.00,WUHU216HW,2013-10-04 12:46:00,
2013-10-04 05:51:00,65.0,34.3,29.91,ENE,68,2.0,2.9,32,0.00,,,0.00,WUHU216HW,2013-10-04 12:51:00,
2013-10-04 05:56:00,64.6,34.0,29.91,ENE,68,1.3,2.9,32,0.00,,,0.00,WUHU216HW,2013-10-04 12:56:00,
2013-10-04 06:01:00,64.4,34.6,29.91,East,90,2.9,2.9,33,0.00,,,0.00,WUHU216HW,2013-10-04 13:01:00,
2013-10-04 06:06:00,64.1,34.2,29.91,ENE,68,2.5,3.4,33,0.00,,,0.00,WUHU216HW,2013-10-04 13:06:00,
2013-10-04 06:11:00,63.9,34.8,29.92,ENE,68,1.8,3.4,34,0.00,,,0.00,WUHU216HW,2013-10-04 13:11:00,
2013-10-04 06:16:00,63.7,34.7,29.92,ENE,68,1.8,3.1,34,0.00,,,0.00,WUHU216HW,2013-10-04 13:16:00,
2013-10-04 06:21:00,63.5,35.2,29.92,ENE,68,1.1,2.7,35,0.00,,,0.00,WUHU216HW,2013-10-04 13:21:00,
2013-10-04 06:26:00,63.4,35.7,29.92,ENE,68,1.6,2.5,36,0.00,,,0.00,WUHU216HW,2013-10-04 13:26:00,
2013-10-04 06:31:00,63.4,35.7,29.92,ENE,68,1.8,2.5,36,0.00,,,0.00,WUHU216HW,2013-10-04 13:31:00,
2013-10-04 06:36:00,63.4,36.5,29.92,East,90,1.8,2.5,37,0.00,,,0.00,WUHU216HW,2013-10-04 13:36:00,
2013-10-04 06:41:00,63.4,36.5,29.92,East,90,1.3,2.2,37,0.00,,,0.00,WUHU216HW,2013-10-04 13:41:00,
2013-10-04 06:46:00,63.4,36.5,29.92,ENE,68,1.8,2.2,37,0.00,,,0.00,WUHU216HW,2013-10-04 13:46:00,
2013-10-04 06:51:00,63.5,37.4,29.92,ENE,68,1.8,2.0,38,0.00,,,0.00,WUHU216HW,2013-10-04 13:51:00,
2013-10-04 06:56:00,63.7,37.5,29.92,ENE,68,1.3,2.5,38,0.00,,,0.00,WUHU216HW,2013-10-04 13:56:00,
2013-10-04 07:01:00,63.7,37.5,29.93,ENE,68,1.3,2.5,38,0.00,,,0.00,WUHU216HW,2013-10-04 14:01:00,
2013-10-04 07:06:00,63.7,37.5,29.93,ENE,68,1.3,2.0,38,0.00,,,0.00,WUHU216HW,2013-10-04 14:06:00,
2013-10-04 07:11:00,63.9,38.4,29.93,ENE,68,1.3,1.6,39,0.00,,,0.00,WUHU216HW,2013-10-04 14:11:00,
2013-10-04 07:16:00,64.1,38.5,29.93,East,90,1.3,1.8,39,0.00,,,0.00,WUHU216HW,2013-10-04 14:16:00,
2013-10-04 07:21:00,64.3,38.7,29.93,ESE,113,1.1,1.8,39,0.00,,,0.00,WUHU216HW,2013-10-04 14:21:00,
2013-10-04 07:26:00,64.4,38.2,29.93,ESE,113,0.7,1.8,38,0.00,,,0.00,WUHU216HW,2013-10-04 14:26:00,
2013-10-04 07:31:00,64.6,38.4,29.94,SE,135,1.6,2.0,38,0.00,,,0.00,WUHU216HW,2013-10-04 14:31:00,
2013-10-04 07:36:00,64.8,38.5,29.94,ESE,113,1.8,2.9,38,0.00,,,0.00,WUHU216HW,2013-10-04 14:36:00,
2013-10-04 07:41:00,65.0,39.3,29.94,SSE,158,1.1,2.9,39,0.00,,,0.00,WUHU216HW,2013-10-04 14:41:00,
2013-10-04 07:46:00,65.2,39.5,29.94,ESE,113,0.7,2.9,39,0.00,,,0.00,WUHU216HW,2013-10-04 14:46:00,
2013-10-04 07:51:00,65.2,39.5,29.95,South,180,1.8,3.6,39,0.00,,,0.00,WUHU216HW,2013-10-04 14:51:00,
2013-10-04 07:56:00,65.3,40.4,29.95,East,90,2.2,4.7,40,0.00,,,0.00,WUHU216HW,2013-10-04 14:56:00,
2013-10-04 08:01:00,65.5,40.6,29.95,SE,135,3.4,4.7,40,0.00,,,0.00,WUHU216HW,2013-10-04 15:01:00,
2013-10-04 08:06:00,65.9,40.9,29.95,SE,135,3.4,4.7,40,0.00,,,0.00,WUHU216HW,2013-10-04 15:06:00,
2013-10-04 08:11:00,66.1,41.0,29.96,ESE,113,3.4,4.5,40,0.00,,,0.00,WUHU216HW,2013-10-04 15:11:00,
2013-10-04 08:15:00,66.4,41.9,29.96,East,90,2.7,4.5,41,0.00,,,0.00,WUHU216HW,2013-10-04 15:15:00,
2013-10-04 08:17:00,66.4,41.9,29.96,SSE,158,1.6,4.5,41,0.00,,,0.00,WUHU216HW,2013-10-04 15:17:00,
2013-10-04 08:22:00,66.6,42.1,29.96,SE,135,2.5,4.0,41,0.00,,,0.00,WUHU216HW,2013-10-04 15:22:00,
2013-10-04 08:27:00,66.8,42.3,29.96,SE,135,1.3,4.3,41,0.00,,,0.00,WUHU216HW,2013-10-04 15:27:00,
2013-10-04 08:32:00,67.0,42.5,29.96,ESE,113,1.1,4.3,41,0.00,,,0.00,WUHU216HW,2013-10-04 15:32:00,
2013-10-04 08:37:00,67.3,42.8,29.97,SSW,203,2.0,3.6,41,0.00,,,0.00,WUHU216HW,2013-10-04 15:37:00,
2013-10-04 08:42:00,67.5,42.9,29.97,SW,225,1.6,3.6,41,0.00,,,0.00,WUHU216HW,2013-10-04 15:42:00,
2013-10-04 08:47:00,67.7,42.5,29.97,SSE,158,1.8,3.6,40,0.00,,,0.00,WUHU216HW,2013-10-04 15:47:00,
2013-10-04 08:52:00,68.0,43.5,29.97,SE,135,1.3,3.6,41,0.00,,,0.00,WUHU216HW,2013-10-04 15:52:00,
2013-10-04 08:57:00,68.4,43.7,29.97,South,180,2.9,4.7,41,0.00,,,0.00,WUHU216HW,2013-10-04 15:57:00,
2013-10-04 09:02:00,68.9,43.7,29.98,SSE,158,1.1,4.7,40,0.00,,,0.00,WUHU216HW,2013-10-04 16:02:00,
2013-10-04 09:07:00,69.3,44.0,29.98,SE,135,1.6,3.8,40,0.00,,,0.00,WUHU216HW,2013-10-04 16:07:00,
2013-10-04 09:12:00,69.5,44.1,29.98,WSW,248,3.4,4.9,40,0.00,,,0.00,WUHU216HW,2013-10-04 16:12:00,
2013-10-04 09:17:00,70.0,43.9,29.98,SSW,203,4.3,5.1,39,0.00,,,0.00,WUHU216HW,2013-10-04 16:17:00,
2013-10-04 09:22:00,70.7,43.0,29.98,SSW,203,3.1,8.5,37,0.00,,,0.00,WUHU216HW,2013-10-04 16:22:00,
2013-10-04 09:27:00,71.3,42.0,29.98,WSW,248,4.0,8.5,35,0.00,,,0.00,WUHU216HW,2013-10-04 16:27:00,
2013-10-04 09:32:00,71.8,41.8,29.98,SSW,203,5.8,6.9,34,0.00,,,0.00,WUHU216HW,2013-10-04 16:32:00,
2013-10-04 09:37:00,72.2,42.1,29.98,West,270,4.5,6.9,34,0.00,,,0.00,WUHU216HW,2013-10-04 16:37:00,
2013-10-04 09:42:00,72.4,41.5,29.98,East,90,1.1,6.3,33,0.00,,,0.00,WUHU216HW,2013-10-04 16:42:00,
2013-10-04 09:47:00,72.7,41.9,29.98,WNW,293,3.4,7.4,33,0.00,,,0.00,WUHU216HW,2013-10-04 16:47:00,
2013-10-04 09:52:00,73.1,42.1,29.99,WSW,248,3.4,7.4,33,0.00,,,0.00,WUHU216HW,2013-10-04 16:52:00,
2013-10-04 09:57:00,73.4,41.7,29.99,WSW,248,5.4,6.0,32,0.00,,,0.00,WUHU216HW,2013-10-04 16:57:00,
2013-10-04 10:02:00,73.4,41.7,29.99,SSW,203,6.3,7.6,32,0.00,,,0.00,WUHU216HW,2013-10-04 17:02:00,
2013-10-04 10:07:00,73.8,41.9,29.99,West,270,6.7,7.6,32,0.00,,,0.00,WUHU216HW,2013-10-04 17:07:00,
2013-10-04 10:12:00,74.2,41.6,29.99,WNW,293,3.4,7.8,31,0.00,,,0.00,WUHU216HW,2013-10-04 17:12:00,
2013-10-04 10:17:00,74.3,42.5,29.99,WSW,248,3.8,7.8,32,0.00,,,0.00,WUHU216HW,2013-10-04 17:17:00,
2013-10-04 10:22:00,74.5,42.7,29.99,SW,225,3.1,7.2,32,0.00,,,0.00,WUHU216HW,2013-10-04 17:22:00,
2013-10-04 10:27:00,74.5,42.7,29.99,NW,315,2.0,7.6,32,0.00,,,0.00,WUHU216HW,2013-10-04 17:27:00,
2013-10-04 10:32:00,74.9,43.8,29.99,West,270,3.1,7.6,33,0.00,,,0.00,WUHU216HW,2013-10-04 17:32:00,
2013-10-04 10:37:00,75.2,44.0,29.99,WSW,248,3.1,6.3,33,0.00,,,0.00,WUHU216HW,2013-10-04 17:37:00,
2013-10-04 11:03:00,76.0,44.6,29.99,West,270,7.6,7.6,33,0.00,,,0.00,WUHU216HW,2013-10-04 18:03:00,
2013-10-04 11:08:00,76.3,45.0,29.99,West,270,3.8,7.6,33,0.00,,,0.00,WUHU216HW,2013-10-04 18:08:00,
2013-10-04 11:13:00,76.7,45.4,29.99,West,270,3.8,6.7,33,0.00,,,0.00,WUHU216HW,2013-10-04 18:13:00,
2013-10-04 11:18:00,76.9,45.5,29.99,SW,225,4.9,6.7,33,0.00,,,0.00,WUHU216HW,2013-10-04 18:18:00,
2013-10-04 11:23:00,77.4,45.2,30.00,SSW,203,5.6,7.8,32,0.00,,,0.00,WUHU216HW,2013-10-04 18:23:00,
2013-10-04 11:28:00,77.8,44.7,29.99,WSW,248,4.7,8.5,31,0.00,,,0.00,WUHU216HW,2013-10-04 18:28:00,
2013-10-04 11:33:00,77.8,44.7,29.99,WNW,293,5.4,8.5,31,0.00,,,0.00,WUHU216HW,2013-10-04 18:33:00,
2013-10-04 11:38:00,77.8,44.7,29.99,SW,225,5.1,6.5,31,0.00,,,0.00,WUHU216HW,2013-10-04 18:38:00,
2013-10-04 11:43:00,77.9,44.8,29.99,WNW,293,6.7,9.2,31,0.00,,,0.00,WUHU216HW,2013-10-04 18:43:00,
2013-10-04 11:48:00,78.3,45.2,29.99,WSW,248,3.8,9.2,31,0.00,,,0.00,WUHU216HW,2013-10-04 18:48:00,
2013-10-04 11:53:00,78.8,44.8,29.99,NNW,338,5.8,9.8,30,0.00,,,0.00,WUHU216HW,2013-10-04 18:53:00,
2013-10-04 11:58:00,78.8,44.8,29.98,WSW,248,6.7,9.8,30,0.00,,,0.00,WUHU216HW,2013-10-04 18:58:00,
2013-10-04 12:03:00,78.8,44.8,29.98,SW,225,6.7,7.6,30,0.00,,,0.00,WUHU216HW,2013-10-04 19:03:00,
2013-10-04 12:08:00,79.2,44.1,29.97,WSW,248,4.9,9.2,29,0.00,,,0.00,WUHU216HW,2013-10-04 19:08:00,
2013-10-04 12:13:00,79.4,44.3,29.97,WSW,248,4.3,9.2,29,0.00,,,0.00,WUHU216HW,2013-10-04 19:13:00,
2013-10-04 12:18:00,79.9,44.7,29.97,WNW,293,7.6,9.2,29,0.00,,,0.00,WUHU216HW,2013-10-04 19:18:00,
2013-10-04 12:23:00,80.1,44.9,29.97,WSW,248,6.7,9.2,29,0.00,,,0.00,WUHU216HW,2013-10-04 19:23:00,
2013-10-04 12:28:00,79.9,44.7,29.97,SW,225,5.1,7.6,29,0.00,,,0.00,WUHU216HW,2013-10-04 19:28:00,
2013-10-04 12:33:00,80.5,42.1,29.97,West,270,6.7,9.2,26,0.00,,,0.00,WUHU216HW,2013-10-04 19:33:00,
2013-10-04 12:38:00,80.6,43.3,29.97,WSW,248,6.9,10.1,27,0.00,,,0.00,WUHU216HW,2013-10-04 19:38:00,
2013-10-04 12:43:00,80.8,42.4,29.97,NNW,338,6.9,10.1,26,0.00,,,0.00,WUHU216HW,2013-10-04 19:43:00,
2013-10-04 12:48:00,81.0,42.6,29.97,West,270,2.9,7.8,26,0.00,,,0.00,WUHU216HW,2013-10-04 19:48:00,
2013-10-04 12:53:00,81.0,42.6,29.97,WSW,248,4.7,8.7,26,0.00,,,0.00,WUHU216HW,2013-10-04 19:53:00,
2013-10-04 12:58:00,80.8,43.5,29.97,WSW,248,5.1,8.7,27,0.00,,,0.00,WUHU216HW,2013-10-04 19:58:00,
2013-10-04 13:03:00,81.4,42.8,29.97,West,270,10.5,10.7,26,0.00,,,0.00,WUHU216HW,2013-10-04 20:03:00,
2013-10-04 13:08:00,81.4,42.8,29.97,NNW,338,4.9,11.6,26,0.00,,,0.00,WUHU216HW,2013-10-04 20:08:00,
2013-10-04 13:13:00,81.0,42.6,29.97,SSW,203,4.0,11.6,26,0.00,,,0.00,WUHU216HW,2013-10-04 20:13:00,
2013-10-04 13:18:00,81.4,42.8,29.97,South,180,1.1,8.5,26,0.00,,,0.00,WUHU216HW,2013-10-04 20:18:00,
2013-10-04 13:23:00,82.1,42.4,29.96,West,270,5.8,9.8,25,0.00,,,0.00,WUHU216HW,2013-10-04 20:23:00,
2013-10-04 13:28:00,82.1,42.4,29.96,WNW,293,7.2,9.8,25,0.00,,,0.00,WUHU216HW,2013-10-04 20:28:00,
2013-10-04 13:33:00,81.9,42.2,29.96,WSW,248,6.3,8.7,25,0.00,,,0.00,WUHU216HW,2013-10-04 20:33:00,
2013-10-04 13:38:00,82.3,42.5,29.96,WNW,293,4.5,9.4,25,0.00,,,0.00,WUHU216HW,2013-10-04 20:38:00,
2013-10-04 13:43:00,82.4,42.7,29.96,WNW,293,4.5,9.8,25,0.00,,,0.00,WUHU216HW,2013-10-04 20:43:00,
2013-10-04 13:48:00,82.8,42.0,29.96,NW,315,5.6,10.5,24,0.00,,,0.00,WUHU216HW,2013-10-04 20:48:00,
2013-10-04 13:53:00,82.8,42.0,29.95,WSW,248,6.5,10.5,24,0.00,,,0.00,WUHU216HW,2013-10-04 20:53:00,
2013-10-04 13:58:00,82.6,41.8,29.95,NW,315,5.4,9.4,24,0.00,,,0.00,WUHU216HW,2013-10-04 20:58:00,
2013-10-04 14:03:00,82.4,41.6,29.94,NW,315,6.0,8.5,24,0.00,,,0.00,WUHU216HW,2013-10-04 21:03:00,
2013-10-04 14:08:00,82.8,42.0,29.94,WNW,293,6.3,8.5,24,0.00,,,0.00,WUHU216HW,2013-10-04 21:08:00,
2013-10-04 14:13:00,83.2,41.1,29.94,WNW,293,8.1,15.7,23,0.00,,,0.00,WUHU216HW,2013-10-04 21:13:00,
2013-10-04 14:18:00,83.5,41.5,29.94,West,270,5.8,15.7,23,0.00,,,0.00,WUHU216HW,2013-10-04 21:18:00,
2013-10-04 14:23:00,83.5,40.4,29.94,West,270,11.4,11.9,22,0.00,,,0.00,WUHU216HW,2013-10-04 21:23:00,
2013-10-04 14:28:00,83.3,40.2,29.95,NNW,338,5.8,11.9,22,0.00,,,0.00,WUHU216HW,2013-10-04 21:28:00,
2013-10-04 14:33:00,83.0,40.0,29.95,WNW,293,9.8,12.5,22,0.00,,,0.00,WUHU216HW,2013-10-04 21:33:00,
2013-10-04 14:38:00,82.8,39.8,29.95,West,270,9.6,12.5,22,0.00,,,0.00,WUHU216HW,2013-10-04 21:38:00,
2013-10-04 14:43:00,83.0,40.0,29.95,WNW,293,2.7,9.8,22,0.00,,,0.00,WUHU216HW,2013-10-04 21:43:00,
2013-10-04 14:48:00,83.2,40.2,29.95,WNW,293,6.0,10.7,22,0.00,,,0.00,WUHU216HW,2013-10-04 21:48:00,
2013-10-04 14:53:00,83.2,40.2,29.95,South,180,2.7,11.0,22,0.00,,,0.00,WUHU216HW,2013-10-04 21:53:00,
2013-10-04 14:58:00,83.2,40.2,29.95,West,270,5.4,12.1,22,0.00,,,0.00,WUHU216HW,2013-10-04 21:58:00,
2013-10-04 15:03:00,83.3,40.2,29.95,NW,315,4.5,12.1,22,0.00,,,0.00,WUHU216HW,2013-10-04 22:03:00,
2013-10-04 15:08:00,83.5,41.5,29.95,West,270,2.5,9.8,23,0.00,,,0.00,WUHU216HW,2013-10-04 22:08:00,
2013-10-04 15:13:00,83.9,40.7,29.95,West,270,3.1,6.5,22,0.00,,,0.00,WUHU216HW,2013-10-04 22:13:00,
2013-10-04 15:18:00,84.2,41.1,29.95,West,270,9.2,14.1,22,0.00,,,0.00,WUHU216HW,2013-10-04 22:18:00,
2013-10-04 15:23:00,83.9,40.7,29.95,WNW,293,9.4,14.1,22,0.00,,,0.00,WUHU216HW,2013-10-04 22:23:00,
2013-10-04 15:28:00,83.9,41.8,29.95,West,270,5.1,11.6,23,0.00,,,0.00,WUHU216HW,2013-10-04 22:28:00,
2013-10-04 15:33:00,83.9,40.7,29.95,North,0,4.7,11.6,22,0.00,,,0.00,WUHU216HW,2013-10-04 22:33:00,
2013-10-04 15:38:00,83.9,40.7,29.94,West,270,2.5,7.6,22,0.00,,,0.00,WUHU216HW,2013-10-04 22:38:00,
2013-10-04 15:43:00,84.1,42.0,29.94,WSW,248,5.6,9.6,23,0.00,,,0.00,WUHU216HW,2013-10-04 22:43:00,
2013-10-04 15:48:00,84.4,42.2,29.94,WNW,293,8.9,11.6,23,0.00,,,0.00,WUHU216HW,2013-10-04 22:48:00,
2013-10-04 15:53:00,84.2,42.0,29.93,West,270,9.6,11.6,23,0.00,,,0.00,WUHU216HW,2013-10-04 22:53:00,
2013-10-04 15:58:00,84.1,42.0,29.94,WNW,293,4.3,10.1,23,0.00,,,0.00,WUHU216HW,2013-10-04 22:58:00,
2013-10-04 16:03:00,84.1,42.0,29.94,WNW,293,5.4,9.6,23,0.00,,,0.00,WUHU216HW,2013-10-04 23:03:00,
2013-10-04 16:08:00,84.1,42.0,29.94,West,270,6.9,9.8,23,0.00,,,0.00,WUHU216HW,2013-10-04 23:08:00,
2013-10-04 16:13:00,83.7,41.6,29.95,WNW,293,5.4,11.2,23,0.00,,,0.00,WUHU216HW,2013-10-04 23:13:00,
2013-10-04 16:18:00,83.5,42.5,29.94,NW,315,4.9,11.2,24,0.00,,,0.00,WUHU216HW,2013-10-04 23:18:00,
2013-10-04 16:23:00,83.7,42.7,29.94,WNW,293,7.4,9.6,24,0.00,,,0.00,WUHU216HW,2013-10-04 23:23:00,
2013-10-04 16:28:00,83.5,42.5,29.95,WNW,293,8.5,10.5,24,0.00,,,0.00,WUHU216HW,2013-10-04 23:28:00,
2013-10-04 16:33:00,83.3,42.4,29.95,NW,315,7.8,10.5,24,0.00,,,0.00,WUHU216HW,2013-10-04 23:33:00,
2013-10-04 16:38:00,82.8,42.0,29.95,WNW,293,7.8,12.3,24,0.00,,,0.00,WUHU216HW,2013-10-04 23:38:00,
2013-10-04 16:43:00,82.8,42.0,29.95,NW,315,8.1,12.3,24,0.00,,,0.00,WUHU216HW,2013-10-04 23:43:00,
2013-10-04 16:48:00,82.6,42.9,29.95,WNW,293,10.3,16.3,25,0.00,,,0.00,WUHU216HW,2013-10-04 23:48:00,
2013-10-04 16:53:00,82.4,42.7,29.95,NW,315,6.3,16.3,25,0.00,,,0.00,WUHU216HW,2013-10-04 23:53:00,
2013-10-04 16:58:00,82.4,42.7,29.95,West,270,8.9,11.2,25,0.00,,,0.00,WUHU216HW,2013-10-04 23:58:00,
2013-10-04 17:03:00,82.3,42.5,29.95,NW,315,6.9,12.1,25,0.00,,,0.00,WUHU216HW,2013-10-05 00:03:00,
2013-10-04 17:08:00,82.1,42.4,29.94,WNW,293,6.5,12.1,25,0.00,,,0.00,WUHU216HW,2013-10-05 00:08:00,
2013-10-04 17:12:00,81.7,42.1,29.94,NW,315,7.6,13.4,25,0.00,,,0.00,WUHU216HW,2013-10-05 00:12:00,
2013-10-04 17:18:00,81.5,41.9,29.93,WNW,293,9.6,13.4,25,0.00,,,0.00,WUHU216HW,2013-10-05 00:18:00,
2013-10-04 17:23:00,81.2,41.7,29.93,NW,315,9.8,11.6,25,0.00,,,0.00,WUHU216HW,2013-10-05 00:23:00,
2013-10-04 17:28:00,80.8,41.4,29.93,NW,315,8.5,11.6,25,0.00,,,0.00,WUHU216HW,2013-10-05 00:28:00,
2013-10-04 17:33:00,80.6,42.3,29.94,WNW,293,9.8,11.4,26,0.00,,,0.00,WUHU216HW,2013-10-05 00:33:00,
2013-10-04 17:38:00,80.3,41.9,29.94,WNW,293,10.1,12.1,26,0.00,,,0.00,WUHU216HW,2013-10-05 00:38:00,
2013-10-04 17:42:00,79.9,41.6,29.94,NNW,338,7.4,12.1,26,0.00,,,0.00,WUHU216HW,2013-10-05 00:42:00,
2013-10-04 17:47:00,79.6,41.3,29.94,WSW,248,5.8,11.4,26,0.00,,,0.00,WUHU216HW,2013-10-05 00:47:00,
2013-10-04 17:52:00,79.0,41.9,29.94,NW,315,6.7,11.4,27,0.00,,,0.00,WUHU216HW,2013-10-05 00:52:00,
2013-10-04 17:57:00,78.7,42.6,29.95,WNW,293,8.5,9.6,28,0.00,,,0.00,WUHU216HW,2013-10-05 00:57:00,
2013-10-04 18:02:00,78.3,42.3,29.95,WNW,293,9.4,12.8,28,0.00,,,0.00,WUHU216HW,2013-10-05 01:02:00,
2013-10-04 18:07:00,77.9,42.0,29.95,WNW,293,5.8,12.8,28,0.00,,,0.00,WUHU216HW,2013-10-05 01:07:00,
2013-10-04 18:12:00,77.8,41.9,29.95,NW,315,8.5,13.0,28,0.00,,,0.00,WUHU216HW,2013-10-05 01:12:00,
2013-10-04 18:17:00,77.4,41.6,29.95,NW,315,7.8,14.3,28,0.00,,,0.00,WUHU216HW,2013-10-05 01:17:00,
2013-10-04 18:22:00,77.2,41.4,29.95,NNW,338,4.0,14.3,28,0.00,,,0.00,WUHU216HW,2013-10-05 01:22:00,
2013-10-04 18:27:00,77.0,41.3,29.95,West,270,6.7,10.1,28,0.00,,,0.00,WUHU216HW,2013-10-05 01:27:00,
2013-10-04 18:32:00,76.7,41.0,29.95,NW,315,5.4,12.8,28,0.00,,,0.00,WUHU216HW,2013-10-05 01:32:00,
2013-10-04 18:37:00,76.5,40.9,29.95,WSW,248,4.7,12.8,28,0.00,,,0.00,WUHU216HW,2013-10-05 01:37:00,
2013-10-04 18:42:00,76.3,38.6,29.96,NW,315,6.5,10.1,26,0.00,,,0.00,WUHU216HW,2013-10-05 01:42:00,
2013-10-04 18:47:00,76.3,38.6,29.96,North,0,8.5,10.1,26,0.00,,,0.00,WUHU216HW,2013-10-05 01:47:00,
2013-10-04 18:52:00,76.3,38.6,29.97,NW,315,2.5,11.0,26,0.00,,,0.00,WUHU216HW,2013-10-05 01:52:00,
2013-10-04 18:57:00,76.1,38.4,29.97,North,0,9.6,11.0,26,0.00,,,0.00,WUHU216HW,2013-10-05 01:57:00,
2013-10-04 19:02:00,76.0,37.3,29.97,NW,315,7.4,10.1,25,0.00,,,0.00,WUHU216HW,2013-10-05 02:02:00,
2013-10-04 19:07:00,76.0,37.3,29.97,NW,315,6.9,9.8,25,0.00,,,0.00,WUHU216HW,2013-10-05 02:07:00,
2013-10-04 19:12:00,76.0,37.3,29.97,NNW,338,7.4,11.6,25,0.00,,,0.00,WUHU216HW,2013-10-05 02:12:00,
2013-10-04 19:17:00,75.8,37.1,29.97,NNW,338,6.9,11.6,25,0.00,,,0.00,WUHU216HW,2013-10-05 02:17:00,
2013-10-04 19:22:00,75.6,36.9,29.96,NW,315,8.9,12.1,25,0.00,,,0.00,WUHU216HW,2013-10-05 02:22:00,
2013-10-04 19:27:00,75.4,36.8,29.96,NW,315,6.7,12.1,25,0.00,,,0.00,WUHU216HW,2013-10-05 02:27:00,
2013-10-04 19:32:00,75.2,36.6,29.96,WNW,293,5.8,11.9,25,0.00,,,0.00,WUHU216HW,2013-10-05 02:32:00,
2013-10-04 19:37:00,75.1,35.5,29.96,NW,315,13.0,13.0,24,0.00,,,0.00,WUHU216HW,2013-10-05 02:37:00,
2013-10-04 19:42:00,75.2,34.6,29.97,North,0,10.1,14.8,23,0.00,,,0.00,WUHU216HW,2013-10-05 02:42:00,
2013-10-04 19:47:00,75.1,35.5,29.97,NNW,338,16.8,16.8,24,0.00,,,0.00,WUHU216HW,2013-10-05 02:47:00,
2013-10-04 19:52:00,74.9,34.3,29.98,NW,315,10.3,16.8,23,0.00,,,0.00,WUHU216HW,2013-10-05 02:52:00,
2013-10-04 19:57:00,74.9,34.3,29.98,NW,315,9.2,13.4,23,0.00,,,0.00,WUHU216HW,2013-10-05 02:57:00,
2013-10-04 20:02:00,74.7,34.1,29.98,North,0,6.9,11.4,23,0.00,,,0.00,WUHU216HW,2013-10-05 03:02:00,
2013-10-04 20:07:00,74.7,34.1,29.98,WNW,293,7.4,12.5,23,0.00,,,0.00,WUHU216HW,2013-10-05 03:07:00,
2013-10-04 20:12:00,74.5,34.0,29.98,NW,315,10.5,12.5,23,0.00,,,0.00,WUHU216HW,2013-10-05 03:12:00,
2013-10-04 20:17:00,74.5,32.9,29.98,NW,315,12.1,15.0,22,0.00,,,0.00,WUHU216HW,2013-10-05 03:17:00,
2013-10-04 20:22:00,74.5,32.9,29.98,North,0,9.6,16.1,22,0.00,,,0.00,WUHU216HW,2013-10-05 03:22:00,
2013-10-04 20:27:00,74.5,32.0,29.98,North,0,10.1,16.3,21,0.00,,,0.00,WUHU216HW,2013-10-05 03:27:00,
2013-10-04 20:32:00,74.3,31.8,29.98,NW,315,13.2,16.3,21,0.00,,,0.00,WUHU216HW,2013-10-05 03:32:00,
2013-10-04 20:37:00,74.3,31.8,29.98,NNW,338,11.4,18.6,21,0.00,,,0.00,WUHU216HW,2013-10-05 03:37:00,
2013-10-04 20:42:00,74.2,31.7,29.98,NW,315,12.5,18.6,21,0.00,,,0.00,WUHU216HW,2013-10-05 03:42:00,
2013-10-04 20:47:00,74.2,31.7,29.97,NW,315,11.4,17.9,21,0.00,,,0.00,WUHU216HW,2013-10-05 03:47:00,
2013-10-04 20:52:00,74.2,31.7,29.97,NNE,23,4.5,17.2,21,0.00,,,0.00,WUHU216HW,2013-10-05 03:52:00,
2013-10-04 20:57:00,74.2,31.7,29.97,NE,45,10.1,15.0,21,0.00,,,0.00,WUHU216HW,2013-10-05 03:57:00,
2013-10-04 21:01:00,74.2,31.7,29.97,NNW,338,4.0,15.0,21,0.00,,,0.00,WUHU216HW,2013-10-05 04:01:00,
2013-10-04 21:02:00,74.0,31.5,29.97,NNW,338,6.9,15.0,21,0.00,,,0.00,WUHU216HW,2013-10-05 04:02:00,
2013-10-04 21:07:00,73.8,31.3,29.98,NW,315,9.4,14.1,21,0.00,,,0.00,WUHU216HW,2013-10-05 04:07:00,
2013-10-04 21:12:00,73.8,31.3,29.98,NE,45,5.4,13.0,21,0.00,,,0.00,WUHU216HW,2013-10-05 04:12:00,
2013-10-04 21:17:00,73.8,28.7,29.98,NNE,23,4.7,13.0,19,0.00,,,0.00,WUHU216HW,2013-10-05 04:17:00,
2013-10-04 21:22:00,73.6,28.5,29.98,WNW,293,6.9,12.8,19,0.00,,,0.00,WUHU216HW,2013-10-05 04:22:00,
2013-10-04 21:27:00,73.6,25.3,29.99,North,0,8.7,19.2,17,0.00,,,0.00,WUHU216HW,2013-10-05 04:27:00,
2013-10-04 21:32:00,73.6,25.3,29.99,NNW,338,7.6,19.2,17,0.00,,,0.00,WUHU216HW,2013-10-05 04:32:00,
2013-10-04 21:37:00,73.4,25.1,29.99,SW,225,6.7,18.6,17,0.00,,,0.00,WUHU216HW,2013-10-05 04:37:00,
2013-10-04 21:42:00,73.4,23.5,29.99,NW,315,11.4,18.6,16,0.00,,,0.00,WUHU216HW,2013-10-05 04:42:00,
2013-10-04 21:47:00,73.3,25.0,30.00,NNE,23,3.1,13.6,17,0.00,,,0.00,WUHU216HW,2013-10-05 04:47:00,
2013-10-04 21:52:00,73.1,24.9,30.00,NNW,338,5.4,15.7,17,0.00,,,0.00,WUHU216HW,2013-10-05 04:52:00,
2013-10-04 21:57:00,73.1,23.2,30.00,West,270,12.1,16.6,16,0.00,,,0.00,WUHU216HW,2013-10-05 04:57:00,
2013-10-04 22:02:00,73.3,23.3,30.00,North,0,9.6,20.4,16,0.00,,,0.00,WUHU216HW,2013-10-05 05:02:00,
2013-10-04 22:07:00,73.3,21.7,30.01,NNW,338,7.2,20.4,15,0.00,,,0.00,WUHU216HW,2013-10-05 05:07:00,
2013-10-04 22:12:00,73.1,21.6,30.01,NNE,23,8.9,15.9,15,0.00,,,0.00,WUHU216HW,2013-10-05 05:12:00,
2013-10-04 22:17:00,73.3,21.7,30.00,North,0,10.7,17.9,15,0.00,,,0.00,WUHU216HW,2013-10-05 05:17:00,
2013-10-04 22:22:00,73.4,21.9,30.00,NE,45,12.8,21.0,15,0.00,,,0.00,WUHU216HW,2013-10-05 05:22:00,
2013-10-04 22:27:00,73.4,18.6,30.00,North,0,12.1,21.5,13,0.00,,,0.00,WUHU216HW,2013-10-05 05:27:00,
2013-10-04 22:32:00,73.3,21.7,29.99,North,0,11.4,21.5,15,0.00,,,0.00,WUHU216HW,2013-10-05 05:32:00,
2013-10-04 22:37:00,73.1,18.3,29.99,North,0,13.2,20.4,13,0.00,,,0.00,WUHU216HW,2013-10-05 05:37:00,
2013-10-04 22:42:00,72.9,21.4,30.00,North,0,6.7,20.4,15,0.00,,,0.00,WUHU216HW,2013-10-05 05:42:00,
2013-10-04 22:47:00,72.9,21.4,30.00,North,0,12.5,12.5,15,0.00,,,0.00,WUHU216HW,2013-10-05 05:47:00,
2013-10-04 22:52:00,72.7,19.6,30.00,NNW,338,8.5,12.5,14,0.00,,,0.00,WUHU216HW,2013-10-05 05:52:00,
2013-10-04 22:57:00,72.9,19.8,30.00,NNE,23,7.8,14.1,14,0.00,,,0.00,WUHU216HW,2013-10-05 05:57:00,
2013-10-04 23:02:00,72.7,21.2,30.01,NNW,338,8.3,14.1,15,0.00,,,0.00,WUHU216HW,2013-10-05 06:02:00,
2013-10-04 23:07:00,72.4,21.0,30.01,NNE,23,7.2,11.9,15,0.00,,,0.00,WUHU216HW,2013-10-05 06:07:00,
2013-10-04 23:12:00,72.4,21.0,30.01,NE,45,3.8,11.9,15,0.00,,,0.00,WUHU216HW,2013-10-05 06:12:00,
2013-10-04 23:17:00,72.2,17.6,30.01,NNW,338,6.9,11.4,13,0.00,,,0.00,WUHU216HW,2013-10-05 06:17:00,
2013-10-04 23:22:00,72.2,17.6,30.02,NNW,338,4.7,11.4,13,0.00,,,0.00,WUHU216HW,2013-10-05 06:22:00,
2013-10-04 23:27:00,72.0,19.0,30.02,NNW,338,1.6,8.5,14,0.00,,,0.00,WUHU216HW,2013-10-05 06:27:00,
2013-10-04 23:32:00,72.0,17.4,30.02,NW,315,4.5,9.8,13,0.00,,,0.00,WUHU216HW,2013-10-05 06:32:00,
2013-10-04 23:37:00,71.8,18.9,30.02,NW,315,5.4,9.8,14,0.00,,,0.00,WUHU216HW,2013-10-05 06:37:00,
2013-10-04 23:42:00,71.6,20.3,30.02,NNW,338,6.3,7.6,15,0.00,,,0.00,WUHU216HW,2013-10-05 06:42:00,
2013-10-04 23:47:00,71.6,20.3,30.02,NNE,23,4.5,6.5,15,0.00,,,0.00,WUHU216HW,2013-10-05 06:47:00,
2013-10-04 23:52:00,71.3,21.7,30.03,NNE,23,6.0,11.0,16,0.00,,,0.00,WUHU216HW,2013-10-05 06:52:00,
2013-10-04 23:57:00,71.3,20.1,30.03,North,0,3.6,11.0,15,0.00,,,0.00,WUHU216HW,2013-10-05 06:57:00,